Showing default

ALICE, 39467

Orbit data source: Space-Track

ALICE, 39467 is a payload satellite owned by AFIT (US) in LEO that was launched on Fri, 06 Dec 2013 UTC via an ATLAS V 501 launch vehicle from the Air Force Western Test Range (AFWTR). Payload-class satellites include a variety of spacecraft equipped with specific instruments for various scientific and technological missions. These include communications satellites like Starlink; space stations such as the ISS; scientific satellites like the Hubble; Earth observation satellites from companies like Planet Labs, Umbra, and HawkEye 360; GPS; miniature CubeSats for education and research; and military/defense satellites.

Loading next visibility...
Identifier
39467, 2013-072F
Orbit
LEO
Country
Flag of USUS
Related business
Manufacturer
AFIT
Mission
Operational Defense Technology
Bus & Motor
CUBESAT 3U, Unknown motor
Mass
4 kg wet, 4 kg dry
Launch date (UTC)
2013-12-06 (13 years ago)
Launch vehicle
ATLAS V 501
Launch site
Air Force Western Test Range (AFWTR)
Object type
Payload
Rocket body
Debris
Shape & HBR
Box + 4 Pan, 0.3 m
Radar Cross Section
0.066 m², Medium (>0.1 m² and < 1m²)

Expand to show TLE details & history
Last TLE update: 5 days ago

TLE from 5 days ago
0 ALICE
1 39467U 13072F   26155.32429098  .00006811  00000-0  33689-3 0  9996
2 39467 120.4611 251.3929 0161382 343.1516  16.4238 15.08625101113335
Epoch: 2026-06-04T07:46Z
TLE epoch observation values (Epoch: 2026-06-04T07:46:58.740Z)
Latitude
0.00001°
Longitude
-118.12205°
Altitude
434.989 km
Speed
7.71 km/s
True Right ascension
16h 45m 34s
True Declination
0° 00' 00"
Sunlit
Object was in full shadow at epoch
Visualization orbit readout
Latitude
Unknown
Longitude
Unknown
Altitude
Unknown
Speed
Unknown
Apparent Right ascension
Unknown
Apparent Declination
Unknown
Sunlit
N/A
Visualization observer readout
Local Sidereal Time
12:47:43
Azimuth
Unknown
Elevation
Unknown
Doppler factor
Unknown
Orbital elements
Apogee altitude
651.317 km
Perigee altitude
428.034 km
Semi-major axis
6,917.812 km
Eccentricity
0.01614
Inclination
120.4611°
RAAN
251.3929°
Arg. of periapsis
343.1516°
True anomaly
16.95697°
Mean anomaly
16.4238°
Eccentric anomaly
16.68934°
Mean motion
3.77216 °/min
Orbital period
95.44 mins
BSTAR
0.00033689
Loading maneuver chart data...
Computing Atmospheric mass density...
Loading historical data...
Loading historical data...
Loading historical data...
Loading historical data...
Loading historical data...
Loading historical data...
Loading historical data...

Documentation

Showing up to 5 results
|